Location: Demmingen
(48.6757°N, 10.4375°E)
Time: 09:17:35
(UTC+00:00)

CZ-2C R/B - Pass Details

Date: 08 August 2024
Orbit: 703 x 903 km, 98.2° (Epoch: 16 September)

Event Time Altitude Azimuth Distance (km) Brightness Sun altitude
Rises 02:06:55 0° 8° (N) 3,152 7.2 -15.9°
Reaches altitude 10° 02:09:14 10° 2° (N) 2,247 6.2 -15.6°
Maximum altitude 02:13:53 43° 292° (WNW) 1,060 3.6 -15.1°
Enters shadow 02:16:42 22° 233° (SW) 1,624 4.1 -14.8°
